Weather History for KAKR - March, 2013

Change the Weather History Date:

Thursday, March 14, 2013

  Actual Average (KCAK) Record (KCAK)
Temperature  
Mean Temperature 29 °F 37 °F  
Max Temperature 39 °F 46 °F 77 °F (1990)
Min Temperature 21 °F 28 °F 7 °F (1895)
Degree Days  
Heating Degree Days 36 28  
Month to date heating degree days 427  
Since 1 July heating degree days 4971  
Cooling Degree Days 0 0  
Month to date cooling degree days 0  
Year to date cooling degree days 0  
Moisture  
Dew Point 18 °F    
Average Humidity 63    
Maximum Humidity 78    
Minimum Humidity 45    
Precipitation  
Precipitation 0.00 in 0.10 in 1.46 in (1973)
Month to date precipitation 1.24  
Year to date precipitation 6.16  
Snow  
Snow 0.00 in 0.20 in - ()
Month to date snowfall 4.5  
Since 1 July snowfall 41.0  
Snow Depth -    
Sea Level Pressure  
Sea Level Pressure 30.19 in    
Wind  
Wind Speed 13 mph (West)    
Max Wind Speed 17 mph    
Max Gust Speed 26 mph    
Visibility 10 miles    
Events      
T = Trace of Precipitation, MM = Missing Value Source: NWS Daily Summary

Daily Weather History Graph

Daily Weather History Graph

Search for Another Location

Airport or City:

Trip Planner

Search our weather history database for the weather conditions in past years. The results will help you decide how hot, cold, wet, or windy it might be!

Date:

Astronomy

Mar. 14, 2013 Rise Set
Actual Time 7:38 AM EDT 7:31 PM EDT
Civil Twilight 7:11 AM EDT 7:59 PM EDT
Nautical Twilight 6:39 AM EDT 8:31 PM EDT
Astronomical Twilight 6:07 AM EDT 9:03 PM EDT
Moon 8:50 AM EDT (3/14) 10:48 PM EDT (3/14)
Length of Visible Light 12h 47m
Length of Day
11h 52m
Waxing Crescent, 9% of the Moon is Illuminated
Mar 14
Waxing Crescent
Mar 19
First Quarter
Mar 27
Full
Apr 3
Last Quarter
Apr 10
New

Hourly Weather History & Observations

Time (EDT) Temp. Windchill Dew Point Humidity Pressure Visibility Wind Dir Wind Speed Gust Speed Precip Events Conditions
12:54 AM 27.0 °F 14.3 °F 18.0 °F 69% 30.17 in 10.0 mi WNW 17.3 mph 21.9 mph 0.00 in   Overcast
1:54 AM 26.1 °F 15.0 °F 17.1 °F 69% 30.18 in 10.0 mi West 12.7 mph 26.5 mph N/A   Overcast
2:54 AM 25.0 °F 13.6 °F 17.1 °F 72% 30.19 in 10.0 mi West 12.7 mph - N/A   Overcast
3:54 AM 25.0 °F 13.6 °F 17.1 °F 72% 30.19 in 10.0 mi West 12.7 mph - N/A   Overcast
4:54 AM 24.1 °F 13.1 °F 16.0 °F 71% 30.19 in 10.0 mi West 11.5 mph - N/A   Clear
5:54 AM 23.0 °F 12.4 °F 16.0 °F 74% 30.20 in 10.0 mi West 10.4 mph - N/A   Clear
6:54 AM 21.9 °F 12.5 °F 16.0 °F 78% 30.22 in 10.0 mi West 8.1 mph - N/A   Clear
7:54 AM 21.9 °F 12.5 °F 16.0 °F 78% 30.23 in 10.0 mi West 8.1 mph - N/A   Clear
8:54 AM 25.0 °F 14.2 °F 17.1 °F 72% 30.24 in 10.0 mi West 11.5 mph - N/A   Clear
9:54 AM 27.0 °F 15.2 °F 18.0 °F 69% 30.25 in 10.0 mi West 15.0 mph 20.7 mph N/A   Scattered Clouds
10:05 AM 26.6 °F 14.7 °F 17.6 °F 69% 30.20 in 10.0 mi West 15.0 mph - N/A   Mostly Cloudy
10:44 AM 30.2 °F 20.2 °F 19.4 °F 64% 30.21 in 10.0 mi WNW 12.7 mph - N/A   Mostly Cloudy
10:51 AM 28.4 °F 18.5 °F 17.6 °F 64% 30.21 in 10.0 mi NW 11.5 mph - N/A   Mostly Cloudy
10:54 AM 28.9 °F 17.3 °F 18.0 °F 64% 30.25 in 10.0 mi WNW 16.1 mph - N/A   Mostly Cloudy
11:54 AM 32.0 °F 22.5 °F 19.0 °F 59% 30.24 in 10.0 mi West 12.7 mph 23.0 mph N/A   Mostly Cloudy
12:54 PM 33.8 °F 23.9 °F 17.6 °F 52% 30.20 in 10.0 mi NW 15.0 mph 21.9 mph N/A   Mostly Cloudy
1:54 PM 35.1 °F 25.5 °F 17.1 °F 48% 30.22 in 10.0 mi WNW 15.0 mph 25.3 mph N/A   Mostly Cloudy
2:54 PM 37.0 °F 28.1 °F 19.0 °F 48% 30.19 in 10.0 mi West 15.0 mph 21.9 mph N/A   Mostly Cloudy
3:54 PM 37.9 °F 28.5 °F 18.0 °F 45% 30.17 in 10.0 mi WNW 17.3 mph 23.0 mph N/A   Partly Cloudy
4:54 PM 37.9 °F 30.0 °F 18.0 °F 45% 30.17 in 10.0 mi NW 12.7 mph - N/A   Scattered Clouds
5:54 PM 37.0 °F 29.8 °F 18.0 °F 46% 30.17 in 10.0 mi WNW 10.4 mph - N/A   Mostly Cloudy
6:54 PM 36.0 °F 28.0 °F 19.0 °F 50% 30.17 in 10.0 mi West 11.5 mph - N/A   Mostly Cloudy
7:54 PM 32.0 °F 25.6 °F 19.0 °F 59% 30.17 in 10.0 mi West 6.9 mph - N/A   Clear
8:54 PM 32.0 °F 27.5 °F 19.9 °F 61% 30.16 in 10.0 mi WSW 4.6 mph - N/A   Clear
9:54 PM 30.9 °F 27.5 °F 19.9 °F 64% 30.17 in 10.0 mi WSW 3.5 mph - N/A   Clear
10:54 PM 28.0 °F 21.7 °F 19.9 °F 72% 30.15 in 10.0 mi SW 5.8 mph - N/A   Clear
11:54 PM 28.0 °F 20.0 °F 21.0 °F 75% 30.13 in 10.0 mi SSW 8.1 mph - N/A   Clear